Location: Dammartin
(48.9032°N, 1.6195°E)
Time: 21:45:26
(UTC+00:00)

YAOGAN 1 - Pass Details

Date: 03 February 2023
Orbit: 616 x 618 km, 97.8° (Epoch: 21 March)

Event Time Altitude Azimuth Distance (km) Brightness Sun altitude
Rises 18:06:57 0° 150° (SSE) 2,882 5.8 -12.2°
Reaches altitude 10° 18:09:10 10° 145° (SE) 1,981 4.9 -12.6°
Maximum altitude 18:13:20 50° 70° (ENE) 795 2.7 -13.3°
Drops below altitude 10° 18:17:31 10° 356° (N) 1,997 5.1 -14.0°
Sets 18:19:46 0° 351° (N) 2,908 6.0 -14.3°
